Regional Weather Roundup
Issued by NWS Wakefield, VA

Home | Current Version | Previous Version | Graphics & Text | Print | Product List | Glossary On
Versions: 1 2 3 4 5 6 7 8 9 10 11 12 13 14 15 16 17 18 19 20 21 22 23 24 25 26 27 28 29 30 31 32 33 34 35 36 37 38 39 40 41 42 43 44 45 46 47 48 49 50
000
ASUS41 KAKQ 280510
RWRAKQ

REGIONAL WEATHER ROUNDUP
NATIONAL WEATHER SERVICE WAKEFIELD VA
100 AM EDT MON JUL 28 2014

Note: "fair" indicates few or no clouds below 12,000 feet with no
significant weather and/or obstructions to visibility. * = Denotes
station may not report precipitation (e.g., rain,snow,etc.),
thunder or fog.

VAZ042-051-052>054-056-280600-
NORTHERN VIRGINIA

CITY           SKY/WX    TMP DP  RH WIND       PRES   REMARKS
WASH NATIONAL  LGT RAIN  81  72  74 SW9       29.61F
DULLES         CLOUDY    73  68  84 SW8       29.62F
FORT BELVOIR   CLOUDY    80  72  78 VRB2      29.62F
QUANTICO       MOCLDY    79  71  76 W9        29.63F
FREDERICKSBRG* MOCLDY    79  73  80 SW13      29.62F
STAFFORD*      MOCLDY    77  77 100 SW6       29.67F
WARRENTON      MOCLDY    76  73  90 CALM      29.63F
CULPEPER*      MOCLDY   N/A N/A N/A CALM      29.64F
MANASSAS*      CLOUDY    73  72  94 CALM      29.63F
LEESBURG*      CLOUDY    73  70  88 N7        29.65R
WINCHESTER     PTCLDY    68  63  83 SW3       29.64F
$$

VAZ048-049-060>072-079>083-280600-
CENTRAL AND SOUTH CENTRAL VIRGINIA...AND NORTH CENTRAL NORTH CAROLINA

CITY           SKY/WX    TMP DP  RH WIND       PRES   REMARKS
RICHMOND       MOCLDY    78  72  81 S10       29.68F
CHESTERFIELD*  PTCLDY    77  64  65 SW10      29.70F
HANOVER        PTCLDY    79  72  79 S10       29.68F
TAPPAHANNOCK*  PTCLDY    77  70  79 S8        29.67F
CHARLOTTSVILLE MOCLDY    74  72  93 S7        29.66F
ORANGE*        MOCLDY    73  72  94 S10       29.66F
LOUISA*        MOCLDY    75  72  88 SW5       29.65F
FARMVILLE*     MOCLDY    77  75  94 SW6       29.68F
SOUTH HILL*    CLEAR     75  75 100 SW3       29.78F
ROANOKE RAPIDS NOT AVBL
RALEIGH        CLOUDY    80  70  71 SW7       29.77S
$$

VAZ088>098-280600-
SOUTHEAST VIRGINIA

CITY           SKY/WX    TMP DP  RH WIND       PRES   REMARKS
NORFOLK        PTCLDY    79  71  76 S15       29.71F
VIRGINIA BEACH PTCLDY    77  72  84 S10       29.71F
NORFOLK NAVAL  PTCLDY    80  72  76 S14G20    29.72F
WEST POINT*    PTCLDY    80  72  74 S9        29.69F
NEWPORT NEWS   CLEAR     82  72  71 SW10      29.70F
LANGLEY AFB    CLEAR     79  74  84 SW10      29.69F
FORT EUSTIS    CLEAR     79  77  94 VRB7      29.68F
WILLIAMSBURG*  CLEAR     81  73  78 S8        29.70F
FRANKLIN*      CLEAR     75  73  94 SW6       29.72F
WAKEFIELD      CLEAR     77  72  84 S5        29.71F
$$

VAZ020-022-025-037-045-280600-
WESTERN AND SOUTHWEST VIRGINIA

CITY           SKY/WX    TMP DP  RH WIND       PRES   REMARKS
STAUNTON*      MOCLDY    72  67  84 CALM      29.73F
HOT SPRINGS VA TSTM      61  60  94 W12       29.90S
LYNCHBURG      MOCLDY    71  71 100 CALM      29.75F
DANVILLE       PTCLDY    76  70  82 S5        29.74F
MARTINSVILLE   CLOUDY    78  65  64 W5        29.80S
ROANOKE        MOCLDY    76  64  66 SW13      29.78S
BLACKSBURG     MOCLDY    72  68  88 W3          N/A
DUBLIN*        LGT RAIN  71  65  82 W10       29.86R
MARION*        CLOUDY   N/A N/A N/A W18       29.93S
HILLSVILLE*    CLOUDY    71  62  73 SW14G25   29.89F
RICHLANDS*     CLOUDY    69  66  90 SW14G20   29.90F
WISE*          MOCLDY    66  66 100 W9        29.94R
ABINGDON*      CLOUDY    68  68  99 W12       29.92F
$$

MDZ021>025-VAZ099-100-280600-
SOUTHERN MARYLAND AND THE DELMARVA PENINSULA

CITY           SKY/WX    TMP DP  RH WIND       PRES   REMARKS
PATUXENT RIVER CLEAR     80  71  74 SW17G28   29.62F
BAY BRIDGE APT   N/A     79  72  78 S6        29.63F
LEONARDTOWN    CLEAR     79  70  73 SW12G17   29.65F
DOVER          CLOUDY    76  74  94 S7        29.62F
GEORGETOWN     PTCLDY    75  71  87 S15       29.65F
EASTON         CLOUDY    80  75  85 SW5       29.67F
CAMBRIDGE      PTCLDY    79  72  78 S9        29.63F
SALISBURY      NOT AVBL
OCEAN CITY     CLEAR     75  72  90 SW7       29.67F
WALLOPS ISLAND MOCLDY    77  74  90 SW15      29.67F
ACCOMACK*        N/A     79  70  73 SW12G18   29.69F
$$

NCZ012>017-030>032-280600-
EASTERN NORTH CAROLINA

CITY           SKY/WX    TMP DP  RH WIND       PRES   REMARKS
ELIZABETH CITY MOCLDY    80  74  81 S9        29.76F
AHOSKIE*       PTCLDY    75  72  89 S5        29.75F
EDENTON*       MOCLDY    79  75  87 S7        29.77F
CURRITUCK*     MOCLDY    77  71  80 S3        29.76F
KILL DEVIL HLS MOCLDY    80  75  86 SW5       29.76F
MANTEO         NOT AVBL
CAPE HATTERAS  MOCLDY    81  79  94 SW14G23   29.82S
GOLDSBORO      CLOUDY    83  76  80 SW12      29.77R
WASHINGTON     MOCLDY    79  74  84 S3        29.79S
GREENVILLE     CLOUDY    81  73  78 SW8       29.80S
NEW BERN       CLOUDY    82  74  76 S7        29.81R
WILMINGTON     MOCLDY    83  78  85 SW12      29.82F
$$

VAZ048-280600-
ELSEWHERE

CITY           SKY/WX    TMP DP  RH WIND       PRES   REMARKS
HARRISBURG PA  CLOUDY    68  64  87 E3        29.61F
BALTIMORE      CLOUDY    75  73  94 CALM      29.62F
ANNAPOLIS      CLOUDY    78  71  79 SE7       29.60F
ANDREWS AFB    CLOUDY    78  73  83 S8        29.61F
WILMINGTON DE  TSTM      72  69  90 W13G26    29.65F VSB 1
PHILADELPHIA   TSTM      71  69  93 S6        29.64F FOG
WILDWOOD NJ*   MOCLDY    75  68  78 S8        29.66F
ATLANTIC CITY  MOCLDY    76  71  85 S12       29.65F
HENDERSON NC   CLOUDY    75  71  86 S5        29.76F
GREENSBORO     CLOUDY    80  68  66 W15G22    29.78F
ROCKY MOUNT    CLOUDY    79  73  82 S5        29.76F
FAYETTEVILLE   CLOUDY    86  72  62 SW15      29.78F
CHARLOTTE      CLOUDY    73  69  87 CALM      29.85F
$$

VAZ100-280600-
MARINE

STATION/POSITION TIME  TEMP    WIND        PRES    WAVE   SWELL
                       AIR SEA DIR/SP/G            HT/PER HT/PER
                 (UTC) (F)     (DEG/KT/KT) (MB)    (FT/S) (FT/S)
44066 TX TWR #4  0500   75 74  200/ 14/ 17 1005.1F   4/ 6   2/ 8
CAPE MAY NJ      0500   75 78  180/  8/ 12 1003.8F
LEWES DE         0500   77 71  180/  7/  9 1003.6F
15NM E FENWICK I 0500   76 74              1004.8F   3/ 5
OCEAN-CITY-INLET 0500   72 70  220/  8/ 10 1004.4F
WACHAPREAGUE VA  0500   78 80  220/  7/ 11 1005.3F
THOMAS POINT MD  0500   78 79  190/  9/ 10 1003.5F
GOOSES REEF MD   0500   79     240/ 14/ 17 1003.3F
COVE POINT MD    0500   80     240/ 17/ 26 1002.8F
SOLOMONS ISLAND  0500      80                N/A
BISHOPS HEAD MD  0500   80 78  210/ 17/ 20 1003.1F
PINEY POINT MD   0500          240/ 19/ 22   N/A
POTOMAC MD       0500   79     230/ 19/ 25 1003.2F
CAMBRIDGE MD     0500   78 80  190/  5/ 10 1003.0F
LEWISETTA VA     0500   79 80  230/ 11/ 14 1003.7F
RAPPAHANNOCK LGT 0500          200/ 19/ 21 1005.4F
STINGRAY PT      0500   80     210/ 14/ 17 1005.8F
YORK RVR RNG VA  0500   80     220/ 17/ 19 1004.8F
YORKTOWN VA      0500   79 80  200/  8/ 11 1005.2F
JAMESTOWN VA     0500   78     220/  8/ 12   N/A
DOMINION TERM VA 0500   79     210/ 13/ 16 1006.2F
KIPTOPEKE VA     0500      81  210/ 13/ 15   N/A
CHES BAY BRIDGE  0500   80 75  180/ 14/ 18 1005.5F
CAPE HENRY VA    0500   78     190/  9/ 13 1005.3F
WILLOUBY STN VA  0500          220/ 18/ 21 1005.0F
S CRANEY ISL VA  0500          190/  9/ 14 1006.2F
CAPE HENRY BUOY  0400      76                N/A     2/ 4
1ST LANDING BUOY 0500   80     200/ 14/ 17 1006.0F
CAPE CHARLES BUO 0400      76                N/A     2/ 3
OFFSHORE WE BUOY 0400      78                N/A     3/11
64NM E OF VA BCH 0500   79 78  210/ 12/ 14 1007.4F   3/ 4   2/ 7
DUCK PIER NC     0500   80 63  190/ 10/ 13 1007.2F
44056 DUCK FRF   0400                        N/A     1/11
OREGON INLET NC  0500   82 83  210/ 14/ 16 1008.6F
HATTERAS NC      0500   81 83  220/ 11/ 17 1010.0S
DIAMOND SHLS NC  0500          VRB 19/ 21  1009.4F   4/ 5   2/11
CAPE LOOKOUT NC  0400   82     220/ 13/ 20 1010.0F
$$


USA.gov is the U.S. government's official web portal to all federal, state and local government web resources and services.